Home   Weather   Bălți   Past weeks

Flag for Moldova Past Weather in Bălți, Moldova — Yesterday and Last 2 Weeks

Now
36 °F

Overcast.


Feels Like: 27 °F
Forecast: 21 / 36 °F
Wind: 12 mph from Northwest

Location: Iasi Airport

Current Time: Jan 22, 2017 at 12:09:20 am

Latest Report: Jan 21, 2017 at 11:30 pm


Visibility: N/A

Pressure: 30.45 "Hg

Humidity: 75%

Dew Point: 28 °F

Location of BălțiLocation

Past Weather in Bălți — Graph

°F

Bălți Temperature Yesterday

Maximum temperature yesterday: 36 °F (at 1:30 pm)
Minimum temperature yesterday: 21 °F (at 12:00 am)
Average temperature yesterday: 32 °F

High & Low Weather Summary for the Past Weeks

 TemperatureHumidityPressure
High45 °F (Jan 14, 1:30 pm)93% (Jan 15, 5:00 am)30.74 "Hg (Jan 15, 5:00 am)
Low3 °F (Jan 7, 5:00 am)49% (Jan 14, 1:30 pm)29.42 "Hg (Jan 14, 6:00 am)
Average19 °F78%30.17 "Hg
* Reported Jan 6 11:00 pm — Jan 21 11:00 pm, Bălți, Weather by CustomWeather, © 2017

Note: Actual official high and low records may vary slightly from our data, if they occured in-between our weather recording intervals... More about our weather records

Advertising

Bălți Weather History for the Previous 24 Hours

Scroll right to see more
 ConditionsComfort  
Time TempWeatherWind HumidityBarometerVisibility
11:00 pm
Sat, Jan 21
36 °FOvercast.12 mph75%30.45 "HgN/A
10:30 pm36 °FOvercast.13 mph75%30.45 "HgN/A
10:00 pm36 °FOvercast.8 mph75%30.45 "HgN/A
9:30 pm36 °FOvercast.13 mph75%30.42 "HgN/A
9:00 pm36 °FOvercast.12 mph75%30.42 "HgN/A
8:30 pm36 °FOvercast.9 mph75%30.42 "HgN/A
8:00 pm36 °FOvercast.7 mph75%30.39 "HgN/A
7:30 pm36 °FOvercast.9 mph75%30.39 "HgN/A
7:00 pm36 °FOvercast.10 mph75%30.39 "HgN/A
6:30 pm36 °FOvercast.10 mph75%30.39 "HgN/A
6:00 pm36 °FOvercast.12 mph75%30.39 "HgN/A
5:30 pm36 °FOvercast.13 mph75%30.36 "HgN/A
5:00 pm34 °FOvercast.12 mph81%30.36 "HgN/A
4:30 pm34 °FOvercast.12 mph81%30.36 "HgN/A
4:00 pm36 °FOvercast.12 mph75%30.36 "HgN/A
3:30 pm36 °FOvercast.13 mph70%30.36 "HgN/A
3:00 pm36 °FBroken clouds.13 mph75%30.36 "HgN/A
2:30 pm36 °FOvercast.16 mph75%30.36 "HgN/A
2:00 pm36 °FOvercast.16 mph75%30.36 "HgN/A
1:30 pm36 °FOvercast.13 mph75%30.36 "HgN/A
1:00 pm34 °FOvercast.10 mph81%30.36 "HgN/A
12:30 pm34 °FOvercast.9 mph81%30.36 "HgN/A
12:00 pm34 °FPartly sunny.7 mph81%30.39 "HgN/A
11:30 am34 °FBroken clouds.9 mph81%30.39 "Hg6 mi
11:00 am32 °FBroken clouds.7 mph87%30.39 "Hg4 mi
10:30 am32 °FLight freezing rain. Ice fog.7 mph87%30.39 "Hg2 mi
10:00 am32 °FIce fog.6 mph87%30.36 "Hg1 mi
9:30 am30 °FLight snow. Ice fog.1 mph86%30.36 "Hg2 mi
9:00 am30 °FLight snow. Ice fog.2 mph86%30.36 "Hg2 mi
8:30 am30 °FLight snow. Ice fog.6 mph86%30.36 "Hg2 mi
8:00 am28 °FLight snow. Ice fog.6 mph86%30.36 "Hg2 mi
7:30 am28 °FLight snow. Ice fog.7 mph86%30.36 "Hg3 mi
7:00 am27 °FLight snow. Ice fog.5 mph86%30.36 "Hg3 mi
6:30 am27 °FSnow. Overcast.6 mph86%30.36 "Hg4 mi
6:00 am27 °FSnow. Ice fog.6 mph80%30.36 "Hg2 mi
5:00 am27 °FLight snow. Passing clouds.3 mph74%30.36 "Hg4 mi
4:30 am28 °FPassing clouds.3 mph59%30.39 "Hg4 mi
4:00 am28 °FOvercast.3 mph55%30.39 "HgN/A
3:30 am27 °FOvercast.2 mph59%30.39 "Hg5 mi
3:00 am27 °FOvercast.5 mph64%30.39 "Hg4 mi
2:30 am27 °FOvercast.6 mph64%30.39 "Hg4 mi
2:00 am25 °FOvercast.3 mph74%30.42 "Hg3 mi
1:30 am23 °FLight snow. Passing clouds.3 mph80%30.42 "Hg2 mi
12:30 am21 °FLight snow. Ice fog.1 mph80%30.42 "Hg2 mi
12:00 am21 °FIce fog.2 mph74%30.42 "Hg3 mi
Weather by CustomWeather, © 2017

See weather overviewHow to use our weather pages